Location: Street
(51.1247°N, 2.7429°W)
Time: 01:41:50
(UTC+00:00)

deb Explorer IX - Pass Details

Date: 11 December 2020
Orbit: 536 x 1104 km, 38.8° (Epoch: 20 January)

Event Time Altitude Azimuth Distance (km) Brightness Sun altitude
Rises 13:30:47 0° 245° (WSW) 3,915 ? 13.4°
Reaches altitude 10° 13:33:56 10° 235° (SW) 2,956 ? 13.2°
Maximum altitude 13:40:03 30° 179° (S) 1,822 ? 12.9°
Drops below altitude 10° 13:45:51 10° 121° (ESE) 2,787 ? 12.5°
Sets 13:48:43 0° 111° (ESE) 3,660 ? 12.3°
